[Iaude] MPEC U291: 2023 UJ10 [a=1.44,e=0.22,i=20.9,H=21.8]

mpec at marsden.cfa.harvard.edu mpec at marsden.cfa.harvard.edu
Mon Oct 30 20:17:52 EDT 2023


M.P.E.C. 2023-U291                             Issued 2023 October 31, 00:16 UT

     The Minor Planet Electronic Circulars contain information on unusual
         minor planets, routine data on comets and natural satellites,
         and occasional editorial announcements.  They are published
    on behalf of Division F of the International Astronomical Union by the
          Minor Planet Center, Smithsonian Astrophysical Observatory,
                          Cambridge, MA 02138, U.S.A.
			  
             Prepared using the Tamkin Foundation Computer Network

                              MPC at CFA.HARVARD.EDU
            URL https://www.minorplanetcenter.net/    ISSN 1523-6714

                                   2023 UJ10                                    


Observations:
     K23U10J  C2023 10 06.50317503 22 05.694+06 36 59.79         22.81GVEU291F51
     K23U10J  C2023 10 06.51450603 22 05.790+06 36 35.55         21.90GVEU291F51
     K23U10J  C2023 10 06.52585603 22 05.882+06 36 11.27         22.69GVEU291F51
     K23U10J* C2023 10 17.51883103 21 46.471-00 46 35.27         21.76wXEU291F51
     K23U10J  C2023 10 17.53056003 21 46.174-00 47 06.26         22.27wXEU291F51
     K23U10J  C2023 10 17.54162503 21 45.904-00 47 36.37         22.12wXEU291F51
     K23U10J  C2023 10 17.55266903 21 45.633-00 48 05.41         22.31wXEU291F51
     K23U10J  C2023 10 22.46883703 19 42.363-04 32 57.50         22.10wXEU291F51
     K23U10J  C2023 10 22.48572703 19 41.699-04 33 45.03         21.79wXEU291F51
     K23U10J  C2023 10 22.49695103 19 41.259-04 34 16.63         21.74wXEU291F51
     K23U10J  C2023 10 22.50817003 19 40.820-04 34 48.02         21.76wXEU291F51
     K23U10J DC2023 10 27.34424 03 16 34.18 -08 24 41.0          22.1 GVEU291695
     K23U10J DC2023 10 27.38008 03 16 32.34 -08 26 23.9          22.4 GVEU291695

Observer details:
695 Kitt Peak.  Observer J. V. Scotti.  2.3-m f/9 reflector + CCD.
F51 Pan-STARRS 1, Haleakala.  Observers J. Bulger, T. Lowe, P. Minguez, A.
    Schultz, I. Smith.  Measurers K. Chambers, T. de Boer, J. Fairlamb, H.
    Gao, M. Huber, C.-C. Lin, E. Magnier, Y. Ramanjooloo, R. Wainscoat, R.
    Weryk.  1.8-m Ritchey-Chretien + CCD.

Orbital elements:
2023 UJ10                                                Earth MOID = 0.1943 AU
Epoch 2023 Sept. 13.0 TT = JDT 2460200.5                MPC                     
M 259.27959              (2000.0)            P               Q                  
n   0.56937015     Peri.  305.07384     -0.74524067     -0.66099834             
a   1.4416934      Node   194.25534     +0.66616441     -0.74378575             
e   0.2245415      Incl.   20.87290     -0.02900556     -0.09931744             
P   1.73           H   21.83          G   0.15           U   7                  
Residuals in seconds of arc
231006 F51  0.0   0.0     231017 F51  0.0   0.4-    231022 F51  0.0   0.1+
231006 F51  0.0   0.0     231017 F51  0.0   0.0     231027 695  0.1-  0.1-
231006 F51  0.0   0.0     231022 F51  0.1+  0.0     231027 695  0.0   0.0
231017 F51  0.0   0.0     231022 F51  0.0   0.0
231017 F51  0.1-  0.3+    231022 F51  0.0   0.0

Ephemeris:
2023 UJ10                a,e,i = 1.44, 0.22, 21                  q = 1.1180
Date    TT    R. A. (2000) Decl.     Delta      r    Elong.  Phase     V
2023 10 01    03 20 05.5 +09 39 57   0.6228  1.5146   136.4    27.1    22.9
...
2023 10 16    03 22 10.5 +00 20 13   0.5216  1.4685   148.8    20.6    22.3
...
2023 10 24    03 18 49.9 -05 44 57   0.4861  1.4431   152.3    18.7    22.0
...
2023 10 30    03 14 26.9 -10 31 39   0.4689  1.4237   151.8    19.3    21.9
2023 10 31    03 13 34.8 -11 19 22   0.4668  1.4204   151.4    19.6    21.9
2023 11 01    03 12 40.5 -12 06 52   0.4649  1.4172   150.9    19.9    21.9
...
2023 11 07    03 06 37.0 -16 43 26   0.4582  1.3975   146.9    22.8    21.9
...
2023 11 15    02 57 31.8 -22 10 56   0.4601  1.3711   139.2    28.1    22.1
...
2023 11 30    02 42 13.0 -29 13 45   0.4875  1.3218   123.9    38.3    22.4

A. U. Tomatic                (C) Copyright 2023 MPC           M.P.E.C. 2023-U291





More information about the Iaude mailing list